DW8923 Weather Reports


time (UTC)temp
C
wind
direction
speed
KPH
gust
KPH
rain 1hr
cm
rain 24hr
cm
rain mn
cm
humidity
%
barometer
mb
20260508193010 23 11 3.2 12.9 0.00 0.05 0.05 76 1010.2
20260508191515 23 5 3.2 14.5 0.00 0.05 0.05 77 1010.2
20260508190004 23 99 3.2 11.3 0.00 0.05 0.05 78 1010.4
20260508184601 22 9 3.2 6.4 0.00 0.05 0.05 78 1010.7
20260508184500 22 5 3.2 6.4 0.00 0.05 0.05 79 1010.7
20260508183059 22 74 1.6 6.4 0.00 0.05 0.05 80 1010.9
20260508181607 22 36 1.6 6.4 0.00 0.05 0.05 80 1011.1
20260508180104 22 118 3.2 8.0 0.00 0.05 0.05 79 1011.2
20260508174602 21 321 1.6 8.0 0.00 0.05 0.05 79 1011.3
20260508173046 21 327 3.2 9.7 0.00 0.05 0.05 81 1011.4
20260508171543 21 126 1.6 8.0 0.00 0.05 0.05 81 1011.7
20260508170039 20 46 0.0 4.8 0.00 0.05 0.05 82 1012.1
20260508164536 20 104 0.0 3.2 0.00 0.05 0.05 82 1012.4
20260508163038 19 84 0.0 3.2 0.00 0.05 0.05 83 1012.4
20260508161535 19 144 0.0 3.2 0.00 0.05 0.05 82 1012.6
20260508160031 19 117 1.6 6.4 0.00 0.05 0.05 82 1012.7
20260508154529 19 130 1.6 4.8 0.00 0.05 0.05 83 1012.9
20260508153027 18 159 0.0 6.4 0.00 0.05 0.05 84 1012.9
20260508151527 18 115 3.2 6.4 0.00 0.05 0.05 84 1012.8
20260508150026 18 110 1.6 8.0 0.00 0.05 0.05 84 1012.9
20260508144521 18 101 1.6 6.4 0.00 0.05 0.05 86 1012.8
20260508143024 17 93 0.0 6.4 0.00 0.05 0.05 86 1012.8
20260508141515 17 112 0.0 4.8 0.00 0.05 0.05 87 1012.9
20260508140024 17 103 1.6 6.4 0.00 0.05 0.05 90 1012.9
20260508134515 16 360 0.0 1.6 0.00 0.05 0.05 92 1012.8
20260508133008 16 146 0.0 4.8 0.00 0.05 0.05 92 1013.2
20260508131505 15 134 0.0 1.6 0.00 0.05 0.05 92 1013.4
20260508130006 15 59 0.0 1.6 0.00 0.05 0.05 92 1013.1
20260508124509 15 112 0.0 0.0 0.00 0.05 0.05 92 1013.2
20260508123002 15 112 0.0 0.0 0.00 0.05 0.05 92 1013.3
20260508121601 15 115 0.0 0.0 0.00 0.05 0.05 92 1013.4
20260508120100 15 114 0.0 0.0 0.00 0.05 0.05 92 1013.5
20260508114559 15 355 0.0 0.0 0.00 0.05 0.05 92 1013.8
20260508113105 15 355 0.0 0.0 0.00 0.05 0.05 92 1014.0
20260508111559 15 355 0.0 0.0 0.00 0.05 0.05 92 1013.7
20260508110058 15 328 0.0 1.6 0.00 0.05 0.05 92 1013.6
20260508104601 15 312 0.0 3.2 0.03 0.05 0.05 91 1013.5
20260508103057 15 312 0.0 1.6 0.05 0.05 0.05 91 1014.0
20260508101559 15 302 0.0 1.6 0.05 0.05 0.05 91 1014.0
20260508100055 15 302 0.0 4.8 0.05 0.05 0.05 90 1014.3
20260508094612 15 321 0.0 4.8 0.03 0.03 0.03 89 1014.4
20260508093053 15 323 0.0 4.8 0.00 0.00 0.00 87 1014.6
20260508091548 15 270 0.0 3.2 0.00 0.00 0.00 88 1014.2
20260508090051 15 270 0.0 1.6 0.00 0.00 0.00 88 1014.0
20260508084544 15 270 0.0 1.6 0.00 0.00 0.00 89 1013.7
20260508083041 15 270 0.0 0.0 0.00 0.00 0.00 90 1014.0
20260508081559 14 270 0.0 0.0 0.00 0.00 0.00 91 1013.6
20260508080046 14 270 0.0 0.0 0.00 0.00 0.00 91 1013.5
20260508074538 14 270 0.0 0.0 0.00 0.00 0.00 91 1013.5
20260508073042 14 270 0.0 0.0 0.00 0.00 0.00 91 1013.6
20260508071542 13 270 0.0 0.0 0.00 0.00 0.00 91 1013.8
20260508070032 13 270 0.0 0.0 0.00 0.00 0.00 90 1014.2
20260508064532 13 270 0.0 0.0 0.00 0.00 0.00 90 1014.5
20260508063044 14 270 0.0 0.0 0.00 0.00 0.00 89 1014.7
20260508061529 14 270 0.0 0.0 0.00 0.00 0.00 89 1014.6
20260508060034 14 270 0.0 0.0 0.00 0.00 0.00 89 1014.6
20260508054529 14 270 0.0 1.6 0.00 0.00 0.00 89 1014.4
20260508053025 14 270 0.0 0.0 0.00 0.00 0.00 88 1014.4
20260508051525 14 270 0.0 0.0 0.00 0.00 0.00 88 1014.4
20260508050022 14 270 0.0 0.0 0.00 0.00 0.00 88 1014.7
20260508044528 15 270 0.0 0.0 0.00 0.00 0.00 88 1014.9
20260508043022 15 153 0.0 0.0 0.00 0.00 0.00 87 1014.8
20260508041521 15 153 0.0 1.6 0.00 0.00 0.00 86 1014.8
20260508040020 15 160 0.0 0.0 0.00 0.00 0.00 85 1015.2
20260508034520 15 160 0.0 3.2 0.00 0.00 0.00 85 1015.4
20260508033022 15 160 0.0 1.6 0.00 0.00 0.00 84 1015.5
20260508031518 15 264 1.6 3.2 0.00 0.00 0.00 84 1015.0
20260508030018 15 294 0.0 1.6 0.00 0.00 0.00 83 1014.8
20260508024531 16 72 0.0 3.2 0.00 0.00 0.00 83 1014.1
20260508023024 16 29 0.0 1.6 0.00 0.00 0.00 82 1013.7
20260508021517 16 29 0.0 3.2 0.00 0.00 0.00 81 1013.7
20260508020016 16 71 0.0 4.8 0.00 0.00 0.00 80 1013.5
20260508014515 16 77 0.0 3.2 0.00 0.00 0.00 80 1013.3
20260508013013 16 40 0.0 4.8 0.00 0.00 0.00 78 1013.6
20260508011515 17 22 1.6 4.8 0.00 0.00 0.00 77 1013.4
20260508010012 17 117 0.0 3.2 0.00 0.00 0.00 75 1013.8
20260508004509 17 317 0.0 4.8 0.00 0.00 0.00 73 1014.1
20260508003012 18 15 1.6 4.8 0.00 0.00 0.00 71 1014.3
20260508001506 18 28 1.6 6.4 0.00 0.00 0.00 70 1014.3
20260508000006 18 79 1.6 6.4 0.00 0.00 0.00 70 1014.7
20260507234512 18 302 1.6 6.4 0.00 0.00 0.00 70 1015.1
20260507233006 18 12 0.0 1.6 0.00 0.00 0.00 70 1015.2
20260507231503 18 82 1.6 6.4 0.00 0.00 0.00 70 1014.2
20260507230003 18 44 1.6 4.8 0.00 0.00 0.00 68 1014.8
20260507224502 18 22 1.6 6.4 0.00 0.00 0.00 68 1015.2
20260507223101 18 311 1.6 6.4 0.00 0.00 0.00 68 1015.4
20260507221601 18 350 1.6 8.0 0.00 0.00 0.00 67 1015.4
20260507220058 18 33 4.8 11.3 0.00 0.00 0.00 68 1015.2
20260507214607 18 311 0.0 8.0 0.00 0.00 0.00 69 1015.9
20260507213058 18 285 4.8 9.7 0.00 0.00 0.00 70 1016.1
20260507211601 18 11 1.6 9.7 0.00 0.00 0.00 71 1016.0
20260507204555 17 46 3.2 12.9 0.00 0.00 0.00 69 1016.1
20260507203105 17 54 3.2 12.9 0.00 0.00 0.00 70 1016.5
20260507201559 17 328 0.0 8.0 0.00 0.00 0.00 70 1016.8
20260507200105 17 322 3.2 12.9 0.00 0.00 0.00 71 1016.1
20260507194550 17 329 1.6 8.0 0.00 0.00 0.00 72 1016.9